Tracking 30995 objects as of 5-Jul-2025
HD Live streaming from Space Station
objects crossing your sky now

CZ-2C R/B

Track CZ-2C R/B now!
10-day predictions


NORAD ID: 31114
Int'l Code: 2007-010B
Perigee: 790.3 km
Apogee: 873.8 km
Inclination: 98.4 °
Period: 101.4 minutes
Semi major axis: 7203 km
RCS: 8.2614 m2 (large)
Launch date: April 11, 2007
Source: People's Republic of China (PRC)
Launch site: Taiyaun Space Center, China (TSC)

Note: This is a ROCKET BODY
Your satellite tracking list
Your tracking list is empty




NASA's NSSDC Master Catalog

Two Line Element Set (TLE):
1 31114U 07010B   25186.36451734  .00000097  00000-0  63679-4 0  9994
2 31114  98.3816 307.2487 0057943 293.8684  65.6428 14.20134149944610
Source of the keplerian elements: AFSPC